This demonstration page uses our WeatherBlox Daily Observations layout. Learn more.

Left ArrowRight Arrow

Hourly Observations for January 10, 2019

Temp ( °F °C ) Dew Point ( °F °C ) Humidity (%) Winds ( mph kmh ) Pressure ( in mb ) Visibility ( mi km ) Precip ( " mm )
12:51 am 00:51 Clear 45 7.2 39 3.9 80 80 E 7 11 30.14 1021 10 16 N/A
1:51 am 01:51 Clear 44 6.7 39 3.9 83 83 E 8 13 30.15 1021 10 16 N/A
2:51 am 02:51 Clear 44 6.7 39 3.9 83 83 E 9 15 30.14 1021 10 16 N/A
3:51 am 03:51 Mostly Clear 45 7.2 39 3.9 80 80 ESE 9 15 30.12 1020 10 16 N/A
4:51 am 04:51 Mostly Cloudy 43 6.1 39 3.9 86 86 SE 8 13 30.12 1020 10 16 N/A
5:51 am 05:51 Partly Cloudy 45 7.2 40 4.4 83 83 SE 12 19 30.11 1020 10 16 N/A
6:51 am 06:51 Cloudy 47 8.3 40 4.4 77 77 ESE 7 11 30.11 1020 10 16 N/A
7:51 am 07:51 Cloudy 46 7.8 39 3.9 77 77 SE 10 17 30.13 1020 10 16 N/A
8:51 am 08:51 Mostly Cloudy 48 8.9 40 4.4 74 74 ENE 6 9 30.15 1021 10 16 N/A
9:51 am 09:51 Partly Cloudy 50 10 40 4.4 68 68 SSE 9 15 30.14 1021 10 16 N/A
10:51 am 10:51 Cloudy with Light Rain 49 9.4 43 6.1 80 80 ESE 10 17 30.13 1020 8 13 0.01 0.25
11:51 am 11:51 Cloudy with Light Rain 47 8.3 43 6.1 86 86 ESE 6 9 30.14 1021 10 16 0.02 0.51
12:51 pm 12:51 Cloudy 48 8.9 45 7.2 89 89 E 8 13 30.09 1019 10 16 0.02 0.51
1:51 pm 13:51 Cloudy 49 9.4 45 7.2 86 86 SE 10 17 30.08 1019 10 16 N/A
2:51 pm 14:51 Cloudy 50 10 45 7.2 83 83 ESE 8 13 30.08 1019 10 16 N/A
3:51 pm 15:51 Cloudy 50 10 45 7.2 83 83 ESE 7 11 30.07 1018 10 16 N/A
4:51 pm 16:51 Cloudy 49 9.4 45 7.2 86 86 S 5 7 30.08 1019 10 16 N/A
5:51 pm 17:51 Clear 48 8.9 45 7.2 89 89 SSE 6 9 30.08 1019 10 16 N/A
6:51 pm 18:51 Clear 46 7.8 44 6.7 93 93 N N/A 30.08 1019 10 16 N/A
7:51 pm 19:51 Clear 45 7.2 44 6.7 97 97 SE 5 7 30.07 1018 10 16 N/A
8:51 pm 20:51 Clear 45 7.2 44 6.7 97 97 N N/A 30.06 1018 10 16 N/A
9:51 pm 21:51 Clear 43 6.1 42 5.6 97 97 N 5 7 30.08 1019 10 16 N/A
10:51 pm 22:51 Clear 41 5 41 5 100 100 N N/A 30.07 1018 10 16 N/A
11:51 pm 23:51 Partly Cloudy 41 5 41 5 100 100 NNE 6 9 30.07 1018 10 16 N/A

Powered by AerisWeather